Fayetteville, NC

9:13 PM EST on December 10, 2016 (GMT -0500)
Simmons Army Air Field

Weather History for KFBG - December, 2013

Change the Weather History Date:

Tuesday, December 24, 2013

  Actual Average Record
Temperature  
Mean Temperature 42 °F -  
Max Temperature 50 °F 51 °F 78 °F (2015)
Min Temperature 32 °F 32 °F 25 °F (2010)
Degree Days  
Heating Degree Days 24    
Moisture  
Dew Point 38 °F    
Average Humidity 79    
Maximum Humidity 100    
Minimum Humidity 43    
Precipitation  
Precipitation 0.00 in - - ()
Sea Level Pressure  
Sea Level Pressure 30.21 in    
Wind  
Wind Speed 9 mph (NNW)    
Max Wind Speed 12 mph    
Max Gust Speed 18 mph    
Visibility 10 miles    
Events Rain    
Averages and records for this station are not official NWS values.
T = Trace of Precipitation, MM = Missing Value Source: NWS Daily Summary

Daily Weather History Graph

Daily Weather History Graph

Search for Another Location

Airport or City:

Trip Planner

Search our weather history database for the weather conditions in past years. The results will help you decide how hot, cold, wet, or windy it might be!

Date:

Astronomy

Dec. 24, 2013 Rise Set
Actual Time 7:21 AM EST 5:09 PM EST
Civil Twilight 6:53 AM EST 5:37 PM EST
Nautical Twilight 6:21 AM EST 6:09 PM EST
Astronomical Twilight 5:50 AM EST 6:40 PM EST
Moon No Moon Rise 11:29 AM EST (12/24)
Length of Visible Light 10h 44m
Length of Day
9h 47m
Waning Gibbous, 59% of the Moon is Illuminated
Dec 24
Waning Gibbous
Dec 25
Last Quarter
Jan 1
New
Jan 7
First Quarter
Jan 15
Full

Hourly Weather History & Observations

Time (EST) Temp. Windchill Dew Point Humidity Pressure Visibility Wind Dir Wind Speed Gust Speed Precip Events Conditions
12:21 AM 50.0 °F - 48.2 °F 94% 30.11 in 10.0 mi NNW 11.5 mph 17.3 mph N/A Rain Light Rain
12:31 AM 48.2 °F - 48.2 °F 100% 30.11 in 10.0 mi North 9.2 mph 17.3 mph N/A   Overcast
12:33 AM 48.2 °F - 48.2 °F 100% 30.12 in 10.0 mi North 9.2 mph - N/A Rain Light Rain
12:37 AM 48.2 °F - 46.4 °F 93% 30.12 in 10.0 mi North 8.1 mph - N/A Rain Light Rain
12:51 AM 48.2 °F - 46.4 °F 93% 30.12 in 10.0 mi North 8.1 mph - N/A   Overcast
12:58 AM 48.4 °F - 46.2 °F 92% 30.13 in 10.0 mi North 9.2 mph - 0.00 in   Overcast
1:58 AM 47.5 °F - 44.6 °F 90% 30.13 in 10.0 mi NNW 10.4 mph - N/A   Overcast
2:29 AM 46.4 °F 42.4 °F 42.8 °F 87% 30.13 in 10.0 mi NNW 8.1 mph - N/A Rain Light Rain
2:49 AM 46.4 °F 41.9 °F 42.8 °F 87% 30.12 in 10.0 mi North 9.2 mph - N/A Rain Light Rain
2:58 AM 45.7 °F 41.5 °F 42.3 °F 88% 30.13 in 10.0 mi North 8.1 mph - 0.00 in Rain Light Rain
3:01 AM 46.4 °F 42.4 °F 42.8 °F 87% 30.12 in 10.0 mi North 8.1 mph - N/A   Overcast
3:41 AM 44.6 °F 41.4 °F 41.0 °F 87% 30.13 in 10.0 mi North 5.8 mph 17.3 mph N/A   Overcast
3:58 AM 45.3 °F 41.1 °F 41.2 °F 85% 30.13 in 10.0 mi North 8.1 mph - 0.00 in   Overcast
4:04 AM 44.6 °F 40.2 °F 41.0 °F 87% 30.12 in 10.0 mi North 8.1 mph - N/A   Overcast
4:48 AM 44.6 °F 39.2 °F 42.8 °F 93% 30.13 in 10.0 mi North 10.4 mph 17.3 mph N/A   Overcast
4:58 AM 44.8 °F 40.4 °F 43.9 °F 97% 30.14 in 10.0 mi North 8.1 mph - N/A   Overcast
5:08 AM 44.6 °F 39.7 °F 44.6 °F 100% 30.14 in 10.0 mi NNW 9.2 mph - N/A   Overcast
5:16 AM 44.6 °F 41.4 °F 44.6 °F 100% 30.14 in 10.0 mi Variable 5.8 mph - N/A   Overcast
5:28 AM 44.6 °F 40.2 °F 44.6 °F 100% 30.15 in 10.0 mi North 8.1 mph - N/A   Overcast
5:30 AM 44.6 °F 41.4 °F 44.6 °F 100% 30.15 in 10.0 mi NNW 5.8 mph - N/A   Overcast
5:34 AM 44.6 °F 40.7 °F 44.6 °F 100% 30.15 in 10.0 mi North 6.9 mph - N/A   Overcast
5:58 AM 44.4 °F 40.0 °F 44.2 °F 99% 30.18 in 10.0 mi NNW 8.1 mph - N/A   Overcast
6:18 AM 44.6 °F 40.2 °F 44.6 °F 100% 30.16 in 10.0 mi North 8.1 mph - N/A   Overcast
6:40 AM 44.6 °F 40.2 °F 42.8 °F 93% 30.18 in 10.0 mi North 8.1 mph - N/A   Overcast
6:58 AM 44.2 °F 41.0 °F 41.2 °F 89% 30.19 in 10.0 mi North 5.8 mph - N/A   Mostly Cloudy
7:00 AM 44.6 °F 40.7 °F 41.0 °F 87% 30.19 in 10.0 mi NNW 6.9 mph - N/A   Mostly Cloudy
7:28 AM 44.6 °F 42.2 °F 39.2 °F 81% 30.20 in 10.0 mi Variable 4.6 mph - N/A   Overcast
7:46 AM 44.6 °F 40.7 °F 39.2 °F 81% 30.20 in 10.0 mi North 6.9 mph - N/A   Overcast
7:58 AM 44.1 °F 40.1 °F 39.2 °F 83% 30.22 in 10.0 mi North 6.9 mph - N/A   Overcast
8:58 AM 44.2 °F 39.7 °F 38.3 °F 80% 30.25 in 10.0 mi NNW 8.1 mph - N/A   Overcast
9:58 AM 44.4 °F 40.0 °F 35.8 °F 72% 30.26 in 10.0 mi North 8.1 mph - N/A   Mostly Cloudy
10:58 AM 45.9 °F 41.7 °F 34.2 °F 64% 30.27 in 10.0 mi North 8.1 mph - N/A   Mostly Cloudy
11:58 AM 47.7 °F - 32.4 °F 55% 30.26 in 10.0 mi NNW 9.2 mph - N/A   Clear
12:58 PM 48.7 °F - 30.6 °F 50% 30.25 in 10.0 mi NNW 11.5 mph - N/A   Clear
1:58 PM 49.6 °F - 29.1 °F 45% 30.24 in 10.0 mi North 8.1 mph - N/A   Clear
2:58 PM 49.5 °F - 27.5 °F 43% 30.26 in 10.0 mi NW 11.5 mph 18.4 mph N/A   Clear
3:58 PM 48.7 °F - 26.8 °F 43% 30.27 in 10.0 mi NNW 10.4 mph - N/A   Clear
4:58 PM 46.4 °F 42.9 °F 25.2 °F 43% 30.30 in 10.0 mi NNW 6.9 mph - N/A   Clear
5:58 PM 42.4 °F 38.1 °F 26.6 °F 54% 30.33 in 10.0 mi NNW 6.9 mph - N/A   Clear
6:58 PM 40.5 °F - 27.1 °F 59% 30.37 in 10.0 mi NNW 2.3 mph - N/A   Clear
7:58 PM 38.1 °F 32.9 °F 24.6 °F 58% 30.39 in 10.0 mi NNW 6.9 mph - N/A   Clear
8:58 PM 37.9 °F 32.1 °F 19.8 °F 48% 30.42 in 10.0 mi North 8.1 mph - N/A   Clear
9:58 PM 36.0 °F 28.5 °F 18.3 °F 49% 30.44 in 10.0 mi NNW 10.4 mph - N/A   Clear
10:58 PM 33.8 °F 27.0 °F 16.7 °F 50% 30.45 in 10.0 mi North 8.1 mph - N/A   Clear
11:58 PM 32.0 °F 25.6 °F 16.7 °F 53% 30.45 in 10.0 mi North 6.9 mph - N/A   Clear